sat.trackr.live / text

‹ back to catalog

STARLINK-34827

NORAD 65038 · 2025-161Z

PAYLOAD ACTIVE UNKNOWN

§ Identity

Operator
Country
US
Launch date
2025-07-30
Launch site
AFWTR
Launch vehicle
Mass (kg)
RCS (m²)

Purposes: comms

External: N2YO · Heavens-Above · Gunter

§ Orbital elements

Epoch: 2026-05-24T15:32:37.739328Z

Period
94.11 min
Inclination
53.1594°
Eccentricity
0.0001066
Mean motion
15.30201174 rev/d
Perigee alt
474.5 km
Apogee alt
475.9 km
Semi-major
6,853.3 km
B*
1.2124e-3
RAAN
301.0767°
Arg perigee
94.1716°
Mean anomaly
265.9407°
Rev number
4,586

§ Raw data

STARLINK-348271 65038U 25161Z   26144.64765902  .00035723  00000+0  12124-2 0  99942 65038  53.1594 301.0767 0001066  94.1716 265.9407 15.30201174 45866

JSON: /api/v1/satellites/65038 · /tle

For live sub-satellite position, see the globe view (requires WebGL).

§ Visibility from observer

Set your observer location to see the next 7 days of passes ≥ 10°. The values pass through the URL so the page stays shareable.

No JS? Fill the form by hand. The geolocation button needs JavaScript.